Regional Weather Roundup
Issued by NWS Newport/Morehead, NC

Home | Current Version | Previous Version | Text Only | Print | Product List | Glossary On
Versions: 1 2 3 4 5 6 7 8 9 10 11 12 13 14 15 16 17 18 19 20 21 22 23 24 25 26 27 28 29 30 31 32 33 34 35 36 37 38 39 40 41 42 43 44 45 46 47 48 49 50
000
ASUS42 KMHX 290725
RWRMHX
WEATHER ROUNDUP FOR EASTERN NORTH CAROLINA
NATIONAL WEATHER SERVICE NEWPORT/MOREHEAD CITY NC
300 AM EDT SAT AUG 29 2015

NOTE: "FAIR" INDICATES FEW OR NO CLOUDS BELOW 12,000 FEET
WITH NO SIGNIFICANT WEATHER AND/OR OBSTRUCTIONS TO VISIBILITY

NCZ015>017-031-032-045>047-102-103-290800-
NORTH COAST

CITY           SKY/WX    TMP DP  RH WIND       PRES   REMARKS
EDENTON        PTCLDY    64  62  93 NE5       30.18S
ELIZABETH CITY PTCLDY    69  64  84 NE6       30.18S
KITTY HAWK     PTSUNNY   74  64  68 E5        30.15F
MANTEO         PTCLDY    73  65  74 E9        30.16F

$$

NCZ045>047-081-094-103-104-290800-
CENTRAL COAST

CITY           SKY/WX    TMP DP  RH WIND       PRES   REMARKS
FRISCO         CLOUDY    76  69  79 NE9       30.14F
SWANQUARTER    NOT AVBL

$$

NCZ095-097-098-100-101-290800-
SOUTHERN COAST

CITY           SKY/WX    TMP DP  RH WIND       PRES   REMARKS
BEAUFORT       MOCLDY    72  70  93 NE6       30.13F
CEDAR ISLAND   NOT AVBL
JACKSONVILLE   CLEAR     69  64  84 N5        30.14F
PINEY ISLAND   CLOUDY   N/A N/A N/A NE13      30.14F
WILMINGTON     PTCLDY    68  65  90 NE7       30.14F


$$

NCZ011>013-027>030-043-044-078>080-089-090>093-098-290800-
COASTAL PLAIN

CITY           SKY/WX    TMP DP  RH WIND       PRES   REMARKS
AHOSKIE        PTCLDY    58  56  94 CALM      30.19F
CLINTON        CLEAR     63  62  97 CALM      30.17S
ELIZABETHTOWN  CLEAR     64  63  96 CALM      30.16S
GOLDSBORO      CLEAR     62  61  94 W1        30.16F
GREENVILLE     CLEAR     61  61 100 CALM      30.19S FOG
HAVELOCK       MOCLDY    73  69  87 NE8       30.16S
KENANSVILLE      N/A     61  60  96 CALM      30.17S
KINSTON        CLEAR     62  61  95 CALM      30.18S
NEW BERN       CLOUDY    70  66  87 NE6       30.17S
RICHLANDS      CLEAR     63  57  82 CALM      30.16S
ROCKY MOUNT    CLEAR     60  59  96 CALM      30.19F FOG
WASHINGTON     CLEAR     62  60  95 CALM      30.17S
WHITEVILLE     CLEAR     66  64  94 CALM      30.15S

$$

AMZ130-135-150-152-154-156-158-170-250-252-270-ANZ085-086-088-633-658-670-290800-
MARINE OBSERVATIONS

STATION/POSITION TIME  TEMP    WIND        PRES    WAVE   SWELL
                       AIR SEA DIR/SP/G            HT/PER HT/PER
                 (UTC) (F)     (DEG/KT/KT) (MB)    (FT/S) (FT/S)
CHESAPEAKE LIGHT 0700   75      70/  8/  9 1022.7
64 E VA BEACH    0650   77 80   60/ 10/ 12 1021.3    4/11   3/11
DUCK             NOT AVBL
2 E DUCK         0611      78                N/A     4/11   2/11
OREGON INLET     NOT AVBL
13E OREGON INLT  0700      78                N/A     4/11   2/11
HATTERAS CG      NOT AVBL
DIAMOND BUOY     0650   76 82   30/ 17/ 19 1019.9    4/10   3/10
CAPE LOOKOUT     0700   77      30/ 14/ 18 1019.8
BEAUFORT LAB     NOT AVBL
30 SE NEW RVR IN 0608   79 81   60/ 17/ 23 1020.1
30 SE NEW RVR IN 0625      81                N/A     5/ 6   2/11
27 SE WRIGHTSVLE NOT AVBL
5 SE WRIGHTSVLE  0608   78 82   60/ 14/ 19 1020.4
225 S CAPE HAT   0650   82 84  210/ 10/ 14 1019.2    4/11   5/11
41 SE CHARLESTON 0650   80 84   50/ 17/ 21 1018.7    5/ 6   2/ 9

$$


USA.gov is the U.S. government's official web portal to all federal, state and local government web resources and services.